SB KEPS @ AMSAT $ORB11188.N 2Line Orbital Elements 11188.AMSAT
HR AMSAT ORBITAL ELEMENTS FOR AMATEUR SATELLITES IN NASA FORMAT FROM WA5QGD FORT WORTH,TX July 7, 2011 Send Subscribe/unsubscribe to KEPS at http://www.amsat.org/mailman/listinfo/keps BID: ORB11188.N
DECODE 2-LINE ELSETS WITH THE FOLLOWING KEY: 1 AAAAAU 00 0 0 BBBBB.BBBBBBBB .CCCCCCCC 00000-0 00000-0 0 DDDZ 2 AAAAA EEE.EEEE FFF.FFFF GGGGGGG HHH.HHHH III.IIII JJ.JJJJJJJJKKKKKZ KEY: A-CATALOGNUM B-EPOCHTIME C-DECAY D-ELSETNUM E-INCLINATION F-RAAN G-ECCENTRICITY H-ARGPERIGEE I-MNANOM J-MNMOTION K-ORBITNUM Z-CHECKSUM
TO ALL RADIO AMATEURS BT
AO-07 1 07530U 74089B 11187.54893223 -.00000027 00000-0 10000-3 0 01241 2 07530 101.3916 193.3255 0011610 241.4602 118.5301 12.53583034676613 FO-29 1 24278U 96046B 11187.94813439 .00000005 00000-0 41481-4 0 06182 2 24278 098.5484 329.4133 0350246 205.8788 152.4458 13.52962982735131 SO-33 1 25509U 98061B 11187.87363654 .00000170 00000-0 23694-4 0 59 2 25509 031.4313 132.9604 0353018 053.7793 309.4960 14.28426081663098 RS-22 1 27939U 03042A 11188.52751111 .00000263 00000-0 59287-4 0 4217 2 27939 097.8447 041.5515 0012359 282.9820 077.0013 14.63607369415310 VO-52 1 28650U 05017B 11187.60646005 .00000149 00000-0 24935-4 0 8393 2 28650 097.6397 229.8685 0028182 097.7130 262.7314 14.82103079333629 SO-67 1 35870U 09049F 11188.48570895 .00001142 00000-0 54718-4 0 44 2 35870 097.2794 231.1688 0001668 000.6416 106.6988 15.20847998100024 HO-68 1 36122U 09072B 11188.60878809 -.00000044 00000-0 00000 0 0 5340 2 36122 100.4145 249.1105 0007515 175.7161 184.4021 13.16286908 74925 UO-11 1 14781U 84021B 11188.75975432 .00000008 00000-0 80480-5 0 5941 2 14781 098.0047 245.4053 0010157 073.3814 286.8510 14.79994819468834 AO-16 1 20439U 90005D 11187.86688936 .00000024 00000-0 24562-4 0 02389 2 20439 098.3858 136.8284 0011789 102.7420 257.5081 14.31927253120430 LO-19 1 20442U 90005G 11187.94329143 -.00000024 00000-0 64087-5 0 01550 2 20442 098.3466 141.1781 0012855 097.5464 262.7179 14.32152423120621 AO-27 1 22825U 93061C 11187.96083355 -.00000070 00000-0 -10479-4 0 08729 2 22825 098.5317 132.0082 0007871 212.0417 148.0294 14.29352711927012 IO-26 1 22826U 93061D 11188.79652346 .00000033 00000-0 29538-4 0 6039 2 22826 098.5249 133.2940 0008225 204.1904 155.8904 14.29616127927254 GO-32 1 25397U 98043D 11187.66748579 -.00000032 00000-0 37821-5 0 5213 2 25397 098.3263 179.1881 0000717 164.3419 195.7788 14.23212187674730 NO-44 1 26931U 01043C 11187.76907285 -.00000111 00000-0 -11178-4 0 07952 2 26931 067.0535 293.0696 0006481 255.9990 104.0387 14.29666464509726 SO-50 1 27607U 02058C 11187.70275348 .00000039 00000-0 28023-4 0 5088 2 27607 064.5588 268.3725 0074341 317.0357 042.4967 14.71767388458964 CO-55 1 27844U 03031E 11187.54283907 .00000099 00000-0 66024-4 0 1473 2 27844 098.7062 195.9624 0010188 137.7394 222.4582 14.20822669415664 CO-57 1 27848U 03031J 11187.70055251 .00000049 00000-0 43155-4 0 00984 2 27848 098.7113 195.3123 0010127 141.3827 218.8080 14.20600587415630 AO-51 1 28375U 04025K 11188.45922011 .00000059 00000-0 30529-4 0 144 2 28375 098.0991 165.8390 0084815 009.1752 351.0964 14.40766001368986 CP3 1 31129U 07012N 11187.78246519 .00000321 00000-0 83299-4 0 9100 2 31129 097.8973 210.8624 0104853 120.1196 241.0408 14.52510033223689 CO-65 1 32785U 08021C 11187.72548890 .00000077 00000-0 16311-4 0 00370 2 32785 097.8485 251.2455 0016117 110.4207 249.8737 14.82037659172435 PRISM 1 33493U 09002B 11188.48623977 .00000648 00000-0 89028-4 0 7478 2 33493 098.1274 317.3953 0019137 339.5177 020.5268 14.81767078132527 SOHLA-1 1 33496U 09002E 11187.86301196 .00000126 00000-0 29423-4 0 4569 2 33496 098.0825 297.4977 0007653 064.8336 295.3662 14.69631212131378 TISAT-1 1 36799U 10035E 11188.54636354 .00000535 00000-0 76786-4 0 215 2 36799 098.1009 256.9998 0014603 206.9755 153.0704 14.80606212 53322 STUDSAT 1 36801U 10035G 11188.75571284 .00001397 00000-0 18829-3 0 2089 2 36801 098.1047 257.0895 0012935 195.2510 164.8314 14.80739063 53341 RAX 1 37223U 0 11152.36844328 .00000635 00000-0 96781-4 0 01738 2 37223 071.9713 073.6151 0021634 311.5989 048.3343 14.77415682028541 OOREOS 1 37224U 10062C 11153.29456974 .00000492 00000-0 77478-4 0 01796 2 37224 071.9726 071.8135 0020315 307.7637 052.1684 14.77036357028673 FO-69 1 37227U 0 11188.44951600 .00000185 00000-0 34488-4 0 00748 2 37227 071.9698 354.5874 0018546 245.7889 114.1347 14.76607631012315 NANOSALD 1 37361U 0 11187.49898783 .00061469 00000-0 42757-2 0 02697 2 37361 071.9652 349.5955 0046495 101.0096 259.6363 15.04282256025025 FO-70 1 37380U 0 11188.46639112 .00000095 00000-0 21697-4 0 02099 2 37380 071.9736 354.6825 0019081 242.6397 117.2826 14.76372941033851 NOAA-10 1 16969U 86073A 11187.69600222 .00000061 00000-0 42652-4 0 05570 2 16969 098.6187 217.2165 0012367 164.3799 195.7764 14.27467755290439 NOAA-11 1 19531U 88089A 11187.64714265 .00000311 00000-0 18335-3 0 05584 2 19531 098.7523 274.7430 0011878 130.6749 229.5469 14.14920738175501 NOAA-12 1 21263U 91032A 11187.94748304 .00000079 00000-0 52103-4 0 00651 2 21263 098.7494 205.7573 0013187 126.5718 233.6677 14.25723294047224 MET-3/5 1 21655U 91056A 11187.88575310 .00000051 00000-0 10000-3 0 01537 2 21655 082.5552 036.8559 0014664 106.2951 253.9752 13.17027545956311 MET-2/21 1 22782U 93055A 11188.43173589 .00000001 00000-0 -12377-4 0 1417 2 22782 082.5502 306.8157 0023610 045.0542 315.2534 13.83660161901353 OKEAN-4 1 23317U 94066A 11187.93260821 .00000249 00000-0 27445-4 0 06493 2 23317 082.5396 354.6976 0023672 056.0797 304.2664 14.83099528903472 NOAA-14 1 23455U 94089A 11187.92194491 -.00000000 00000-0 23207-4 0 05520 2 23455 098.8526 270.3623 0008696 220.7448 139.3074 14.13823928851864 NOAA-15 1 25338U 98030A 11188.38815959 .00000070 00000-0 48695-4 0 8754 2 25338 098.6550 174.2538 0011393 038.2262 321.9729 14.24929571683606 RESURS 1 25394U 98043A 11188.55112009 -.00000028 00000-0 54689-5 0 8389 2 25394 098.3005 190.4518 0001435 127.9077 232.2230 14.24235066675201 FENGYUN1 1 25730U 99025A 11187.91745196 .00000975 00000-0 59004-3 0 03820 2 25730 098.8165 148.6783 0022058 260.2202 099.6472 14.08672967625846 OKEAN-0 1 25860U 99039A 11188.52967319 .00000089 00000-0 21021-4 0 3533 2 25860 097.8850 154.4157 0000738 040.5042 319.6219 14.73800901643658 NOAA-16 1 26536U 00055A 11188.26325247 .00000053 00000-0 53623-4 0 3571 2 26536 099.1384 219.2124 0010229 340.8506 019.2259 14.12629897556192 NOAA-17 1 27453U 02032A 11187.77622092 .00000209 00000-0 10813-3 0 03453 2 27453 098.3779 226.5869 0012801 092.0707 268.1920 14.24289649469445 NOAA-18 1 28654U 05018A 11187.80650873 -.00000101 00000-0 -30572-4 0 08257 2 28654 098.9969 139.0033 0015253 051.5904 308.6645 14.11488424315699 NOAA-19 1 33591U 09005A 11187.80801224 .00000303 00000-0 19204-3 0 00163 2 33591 098.8270 127.6335 0013255 282.2397 077.7287 14.11182569124152 HUBBLE 1 20580U 90037B 11187.59487351 .00000584 00000-0 31455-4 0 7935 2 20580 028.4708 249.6712 0003231 329.0398 031.0007 15.01414384962571 ISS 1 25544U 98067A 11189.04362252 .00045836 00000-0 56208-3 0 6700 2 25544 051.6415 055.6573 0010868 302.0364 219.4492 15.59797364724163 CO-58 1 28895U 05043F 11187.59589457 .00000329 00000-0 77438-4 0 09171 2 28895 097.9630 063.2317 0017953 156.5676 203.6371 14.60127534303079 FALCON 1 30776U 07006E 11187.55095983 .00000926 00000-0 67375-4 0 01236 2 30776 035.4334 229.2319 0001805 273.3208 086.7302 15.04723940237962 MAST 1 31126U 07012K 11187.92715400 .00000188 00000-0 52243-4 0 02034 2 31126 097.8921 214.0390 0095963 109.1774 251.9841 14.53766701223952 CAPE1 1 31130U 07012P 11188.55180549 .00000052 00000-0 22157-4 0 2175 2 31130 097.8984 211.3639 0103548 117.7980 243.3698 14.52414795223592 COMPASS 1 32787U 08021E 11187.71729790 .00000370 00000-0 52535-4 0 00320 2 32787 097.8467 251.1707 0016889 111.3746 248.9265 14.82477552172458 AAUSAT2 1 32788U 08021F 11186.86867418 .00000486 00000-0 66672-4 0 00219 2 32788 097.8478 250.5686 0016369 114.2480 246.0464 14.82665175172348 DO-64 1 32789U 08021G 11187.68172636 .00001421 00000-0 18024-3 0 00387 2 32789 097.8562 252.4072 0016573 110.1455 250.1552 14.83165014172473 CO-66 1 32791U 08021J 11187.73809645 .00000564 00000-0 77272-4 0 00257 2 32791 097.8465 251.1254 0017476 110.7202 249.5919 14.82161675172405 RS-30 1 32953U 08025A 11188.43067285 .00000010 00000-0 00000 0 0 8811 2 32953 082.5018 150.1391 0019078 347.8156 012.2461 12.43014010141601 TACSAT-3 1 35001U 09028A 11187.91000131 .00011533 00000-0 20568-3 0 06366 2 35001 040.4543 052.9196 0022955 353.2435 006.8076 15.49572501120145 PHARMSAT 1 35002U 09028B 11188.78560602 .00009798 00000-0 17820-3 0 5914 2 35002 040.4690 045.4631 0024929 007.3463 352.7738 15.49086808120307 HAWKSAT1 1 35003U 09028C 11187.91116398 .00063812 00000-0 54649-3 0 06792 2 35003 040.4542 018.5283 0021123 017.4776 342.6766 15.68163341120522 CP6 1 35004U 09028D 11187.89753893 .00118591 00000-0 69334-3 0 06812 2 35004 040.4528 008.3502 0018050 015.6239 344.5146 15.76945206120628 METEOR-M 1 35865U 09049A 11188.55899087 .00000176 00000-0 10000-3 0 5252 2 35865 098.7042 243.4228 0002277 353.6303 006.4845 14.21840356 93480 RS-38 1 35869U 09049E 11188.48619085 .00000177 00000-0 10000-3 0 5190 2 35869 098.7011 243.3854 0004464 344.1071 015.9966 14.22015879 93485 /EX